Nashua, NH

2:00 AM EST on February 14, 2016 (GMT -0500)
Boire

Weather History for KASH - August, 2014

Change the Weather History Date:

Saturday, August 30, 2014

  Actual Average Record
Temperature  
Mean Temperature 64 °F -  
Max Temperature 77 °F 78 °F 95 °F (1953)
Min Temperature 50 °F 54 °F 36 °F (1965)
Degree Days  
Heating Degree Days 2    
Growing Degree Days 14 (Base 50)    
Moisture  
Dew Point 55 °F    
Average Humidity 77    
Maximum Humidity 100    
Minimum Humidity 43    
Precipitation  
Precipitation 0.00 in - - ()
Sea Level Pressure  
Sea Level Pressure 30.79 in    
Wind  
Wind Speed 1 mph (SSW)    
Max Wind Speed 8 mph    
Max Gust Speed -    
Visibility 8 miles    
Events      
Averages and records for this station are not official NWS values.
T = Trace of Precipitation, MM = Missing Value Source: NWS Daily Summary

Daily Weather History Graph

Daily Weather History Graph

Search for Another Location

Airport or City:

Trip Planner

Search our weather history database for the weather conditions in past years. The results will help you decide how hot, cold, wet, or windy it might be!

Date:

Astronomy

Aug. 30, 2014 Rise Set
Actual Time 6:08 AM EDT 7:23 PM EDT
Civil Twilight 5:39 AM EDT 7:53 PM EDT
Nautical Twilight 5:04 AM EDT 8:28 PM EDT
Astronomical Twilight 4:27 AM EDT 9:04 PM EDT
Moon 11:00 AM EDT (8/30) 9:48 PM EDT (8/30)
Length of Visible Light 14h 13m
Length of Day
13h 15m
Waxing Crescent, 23% of the Moon is Illuminated
Aug 30
Waxing Crescent
Sep 2
First Quarter
Sep 8
Full
Sep 15
Last Quarter
Sep 24
New

Hourly Weather History & Observations

Time (EDT) Temp. Dew Point Humidity Pressure Visibility Wind Dir Wind Speed Gust Speed Precip Events Conditions
12:51 AM 55.9 °F 54.9 °F 96% 31.02 in 10.0 mi Calm Calm - N/A   Clear
1:51 AM 54.9 °F 54.0 °F 97% 31.03 in 10.0 mi Calm Calm - N/A   Clear
2:51 AM 54.0 °F 52.9 °F 96% 31.02 in 10.0 mi Calm Calm - N/A   Clear
3:51 AM 52.9 °F 50.9 °F 93% 31.03 in 10.0 mi Calm Calm - N/A   Clear
4:51 AM 52.0 °F 50.9 °F 96% 31.03 in 10.0 mi Calm Calm - N/A   Clear
5:51 AM 50.9 °F 50.9 °F 100% 31.04 in 10.0 mi Calm Calm - N/A   Clear
6:51 AM 52.9 °F 50.9 °F 93% 31.05 in 0.8 mi Calm Calm - N/A   Mostly Cloudy
7:03 AM 53.6 °F 53.6 °F 100% 30.31 in 1.0 mi Calm Calm - N/A   Mist
7:07 AM 53.6 °F 53.6 °F 100% 30.31 in 0.5 mi Calm Calm - N/A   Mostly Cloudy
7:21 AM 55.4 °F 53.6 °F 94% 30.31 in 1.0 mi Calm Calm - N/A   Mist
7:23 AM 55.4 °F 53.6 °F 94% 30.31 in 1.5 mi Calm Calm - N/A   Mostly Cloudy
7:44 AM 55.4 °F 55.4 °F 100% 30.31 in 10.0 mi Calm Calm - N/A   Mostly Cloudy
7:51 AM 55.9 °F 54.9 °F 96% 31.05 in 10.0 mi Calm Calm - N/A   Mostly Cloudy
8:10 AM 57.2 °F 55.4 °F 94% 30.30 in 10.0 mi SE 4.6 mph - N/A   Scattered Clouds
8:51 AM 63.0 °F 57.9 °F 84% 31.03 in 10.0 mi Calm Calm - N/A   Clear
9:51 AM 68.0 °F 57.9 °F 70% 31.03 in 10.0 mi Variable 4.6 mph - N/A   Partly Cloudy
10:10 AM 69.8 °F 57.2 °F 64% 30.29 in 10.0 mi Variable 4.6 mph - N/A   Mostly Cloudy
10:17 AM 69.8 °F 57.2 °F 64% 30.29 in 10.0 mi Calm Calm - N/A   Scattered Clouds
11:51 AM 72.9 °F 55.9 °F 55% 30.99 in 10.0 mi Variable 6.9 mph - N/A   Mostly Cloudy
12:51 PM 75.9 °F 52.9 °F 45% 30.97 in 10.0 mi Variable 6.9 mph - N/A   Clear
1:51 PM 77.0 °F 54.0 °F 45% 30.95 in 10.0 mi Variable 5.8 mph - N/A   Partly Cloudy
2:51 PM 77.9 °F 54.0 °F 43% 30.92 in 10.0 mi Variable 6.9 mph - 0.00 in   Clear
3:51 PM 77.0 °F 54.0 °F 45% 30.91 in 10.0 mi Variable 6.9 mph - 0.00 in   Scattered Clouds
4:51 PM 77.9 °F 55.9 °F 47% 30.89 in 10.0 mi West 8.1 mph - N/A   Partly Cloudy
5:51 PM 77.0 °F 55.9 °F 48% 30.88 in 10.0 mi Calm Calm - N/A   Clear
6:51 PM 74.8 °F 56.8 °F 53% 30.87 in 10.0 mi Calm Calm - N/A   Clear
7:51 PM 72.0 °F 57.9 °F 61% 30.87 in 10.0 mi Calm Calm - N/A   Clear
8:51 PM 70.0 °F 59.0 °F 68% 30.88 in 10.0 mi Calm Calm - N/A   Clear
9:51 PM 68.0 °F 59.9 °F 75% 30.88 in 10.0 mi Calm Calm - N/A   Clear
11:51 PM 65.8 °F 61.0 °F 84% 30.85 in 10.0 mi Calm Calm - N/A   Clear